Weather History for KSLH - December, 2013

Change the Weather History Date:

Monday, December 2, 2013

  Actual Average (KPLN) Record (KPLN)
Temperature  
Mean Temperature 23 °F -  
Max Temperature 32 °F 33 °F 64 °F (1982)
Min Temperature 14 °F 19 °F -18 °F (1976)
Degree Days  
Heating Degree Days 42    
Moisture  
Dew Point 20 °F    
Average Humidity 76    
Maximum Humidity 89    
Minimum Humidity 58    
Precipitation  
Precipitation 0.00 in - - ()
Sea Level Pressure  
Sea Level Pressure 29.95 in    
Wind  
Wind Speed 1 mph (NW)    
Max Wind Speed 5 mph    
Max Gust Speed -    
Visibility 10 miles    
Events      
Averages and records for this station are not official NWS values.
T = Trace of Precipitation, MM = Missing Value Source: NWS Daily Summary

Daily Weather History Graph

Daily Weather History Graph

Search for Another Location

Airport or City:

Trip Planner

Search our weather history database for the weather conditions in past years. The results will help you decide how hot, cold, wet, or windy it might be!

Date:

Astronomy

Dec. 02, 2013 Rise Set
Actual Time 7:59 AM EST 4:55 PM EST
Civil Twilight 7:26 AM EST 5:28 PM EST
Nautical Twilight 6:48 AM EST 6:06 PM EST
Astronomical Twilight 6:13 AM EST 6:41 PM EST
Moon 7:21 AM EST (12/2) 4:59 PM EST (12/2)
Length of Visible Light 10h 02m
Length of Day
8h 55m
Waning Crescent, 0% of the Moon is Illuminated
Dec 2
Waning Crescent
Dec 2
New
Dec 9
First Quarter
Dec 17
Full
Dec 25
Last Quarter

Hourly Weather History & Observations

Time (EST) Temp. Windchill Dew Point Humidity Pressure Visibility Wind Dir Wind Speed Gust Speed Precip Events Conditions
12:16 AM 29.1 °F - 23.4 °F 79% 30.01 in 10.0 mi Calm Calm - N/A   Overcast
12:37 AM 28.8 °F 25.0 °F 23.5 °F 81% 30.00 in 10.0 mi SSW 3.5 mph - N/A   Overcast
12:56 AM 29.3 °F 25.6 °F 23.5 °F 79% 30.01 in 10.0 mi SW 3.5 mph - N/A   Overcast
1:16 AM 29.3 °F 25.6 °F 23.5 °F 79% 30.00 in 10.0 mi SW 3.5 mph - N/A   Overcast
1:37 AM 30.0 °F - 23.5 °F 77% 29.99 in 10.0 mi Calm Calm - N/A   Overcast
1:56 AM 30.2 °F - 23.5 °F 76% 29.99 in 10.0 mi Calm Calm - N/A   Overcast
2:16 AM 29.3 °F - 23.7 °F 80% 29.99 in 10.0 mi Calm Calm - N/A   Overcast
2:36 AM 30.0 °F - 23.4 °F 76% 29.99 in 10.0 mi Calm Calm - N/A   Overcast
2:56 AM 30.0 °F - 23.5 °F 77% 29.99 in 10.0 mi Calm Calm - N/A   Overcast
3:17 AM 29.5 °F - 23.7 °F 79% 29.98 in 10.0 mi Calm Calm - N/A   Overcast
3:36 AM 30.0 °F - 23.9 °F 78% 29.98 in 10.0 mi Calm Calm - N/A   Overcast
3:56 AM 29.8 °F - 23.5 °F 77% 29.98 in 10.0 mi Calm Calm - N/A   Overcast
4:17 AM 29.5 °F - 23.4 °F 78% 29.97 in 10.0 mi Calm Calm - N/A   Overcast
4:36 AM 28.9 °F - 23.4 °F 80% 29.97 in 10.0 mi Calm Calm - N/A   Overcast
4:56 AM 28.9 °F - 23.5 °F 80% 29.96 in 10.0 mi Calm Calm - N/A   Overcast
5:17 AM 28.6 °F - 23.5 °F 81% 29.96 in 10.0 mi Calm Calm - N/A   Overcast
5:36 AM 28.4 °F 24.6 °F 23.9 °F 83% 29.96 in 10.0 mi SW 3.5 mph - N/A   Overcast
5:56 AM 28.9 °F 25.2 °F 23.9 °F 81% 29.96 in 10.0 mi SW 3.5 mph - N/A   Overcast
6:17 AM 28.9 °F - 23.9 °F 81% 29.96 in 10.0 mi Calm Calm - N/A   Overcast
6:36 AM 28.8 °F - 24.3 °F 83% 29.96 in 10.0 mi Calm Calm - N/A   Overcast
6:56 AM 28.8 °F - 23.9 °F 82% 29.96 in 10.0 mi Calm Calm - N/A   Overcast
7:16 AM 30.2 °F - 23.9 °F 77% 29.96 in 10.0 mi Calm Calm - N/A   Overcast
7:36 AM 29.5 °F - 24.1 °F 80% 29.96 in 10.0 mi Calm Calm - N/A   Overcast
7:57 AM 28.0 °F - 23.7 °F 84% 29.96 in 10.0 mi Calm Calm - N/A   Overcast
8:16 AM 29.5 °F - 24.3 °F 81% 29.96 in 10.0 mi Calm Calm - N/A   Mostly Cloudy
8:36 AM 28.0 °F - 23.9 °F 84% 29.96 in 10.0 mi Calm Calm - N/A   Mostly Cloudy
8:57 AM 28.4 °F - 24.4 °F 85% 29.96 in 10.0 mi Calm Calm - N/A   Scattered Clouds
9:16 AM 30.2 °F - 24.8 °F 80% 29.96 in 10.0 mi Calm Calm - N/A   Scattered Clouds
9:36 AM 30.7 °F - 24.6 °F 78% 29.96 in 10.0 mi Calm Calm - N/A   Clear
9:57 AM 30.6 °F 25.8 °F 21.7 °F 70% 29.95 in 10.0 mi NNE 4.6 mph - N/A   Clear
10:16 AM 30.9 °F 26.2 °F 20.1 °F 64% 29.95 in 10.0 mi NNE 4.6 mph - N/A   Scattered Clouds
10:36 AM 31.1 °F 27.7 °F 19.8 °F 63% 29.95 in 10.0 mi NNE 3.5 mph - N/A   Scattered Clouds
10:56 AM 31.1 °F - 19.0 °F 61% 29.95 in 10.0 mi Calm Calm - N/A   Scattered Clouds
11:16 AM 31.5 °F - 19.2 °F 61% 29.94 in 10.0 mi Calm Calm - N/A   Scattered Clouds
11:36 AM 31.5 °F - 19.4 °F 61% 29.93 in 10.0 mi Calm Calm - N/A   Scattered Clouds
11:56 AM 32.0 °F - 19.6 °F 60% 29.93 in 10.0 mi Calm Calm - N/A   Scattered Clouds
12:16 PM 31.8 °F - 19.4 °F 60% 29.93 in 10.0 mi Calm Calm - N/A   Scattered Clouds
12:37 PM 32.4 °F - 19.8 °F 60% 29.93 in 10.0 mi Calm Calm - N/A   Scattered Clouds
12:56 PM 32.0 °F - 18.9 °F 58% 29.93 in 10.0 mi Calm Calm - N/A   Scattered Clouds
1:16 PM 32.0 °F - 18.7 °F 58% 29.93 in 10.0 mi Calm Calm - N/A   Scattered Clouds
1:36 PM 32.2 °F 27.7 °F 19.2 °F 59% 29.92 in 10.0 mi North 4.6 mph - N/A   Scattered Clouds
1:56 PM 32.0 °F 27.5 °F 21.0 °F 64% 29.92 in 10.0 mi North 4.6 mph - N/A   Scattered Clouds
2:17 PM 32.0 °F - 21.0 °F 64% 29.92 in 10.0 mi Calm Calm - N/A   Scattered Clouds
2:36 PM 32.0 °F 28.7 °F 20.8 °F 63% 29.91 in 10.0 mi North 3.5 mph - N/A   Mostly Cloudy
2:56 PM 31.6 °F 28.3 °F 21.2 °F 65% 29.91 in 10.0 mi North 3.5 mph - N/A   Mostly Cloudy
3:17 PM 30.7 °F 27.3 °F 19.9 °F 64% 29.91 in 10.0 mi North 3.5 mph - N/A   Mostly Cloudy
3:36 PM 29.3 °F - 18.5 °F 64% 29.91 in 10.0 mi Calm Calm - N/A   Scattered Clouds
3:56 PM 29.3 °F - 18.3 °F 64% 29.91 in 10.0 mi Calm Calm - N/A   Clear
4:17 PM 29.1 °F - 18.3 °F 64% 29.91 in 10.0 mi Calm Calm - N/A   Clear
4:36 PM 28.4 °F - 18.9 °F 67% 29.91 in 10.0 mi Calm Calm - N/A   Clear
4:56 PM 26.4 °F - 19.2 °F 74% 29.92 in 10.0 mi Calm Calm - N/A   Clear
5:16 PM 25.7 °F - 19.6 °F 78% 29.92 in 10.0 mi Calm Calm - N/A   Clear
5:36 PM 24.4 °F - 19.0 °F 80% 29.92 in 10.0 mi Calm Calm - N/A   Clear
5:57 PM 23.4 °F - 18.5 °F 82% 29.92 in 10.0 mi Calm Calm - N/A   Clear
6:16 PM 23.0 °F - 18.3 °F 82% 29.92 in 10.0 mi Calm Calm - N/A   Clear
6:36 PM 21.0 °F - 17.4 °F 86% 29.92 in 10.0 mi Calm Calm - N/A   Clear
6:56 PM 20.5 °F - 16.9 °F 86% 29.92 in 10.0 mi Calm Calm - N/A   Clear
7:16 PM 20.1 °F - 16.0 °F 84% 29.93 in 10.0 mi Calm Calm - N/A   Clear
7:37 PM 18.5 °F - 15.6 °F 89% 29.93 in 10.0 mi Calm Calm - N/A   Clear
7:56 PM 18.1 °F - 14.9 °F 87% 29.94 in 10.0 mi Calm Calm - N/A   Clear
8:16 PM 18.0 °F - 14.4 °F 86% 29.93 in 10.0 mi Calm Calm - N/A   Clear
8:37 PM 16.9 °F - 14.0 °F 88% 29.94 in 10.0 mi Calm Calm - N/A   Clear
8:57 PM 16.5 °F - 13.6 °F 88% 29.94 in 10.0 mi Calm Calm - N/A   Clear
9:16 PM 14.7 °F - 12.0 °F 89% 29.94 in 10.0 mi Calm Calm - N/A   Clear
9:36 PM 15.6 °F 10.0 °F 12.7 °F 88% 29.95 in 10.0 mi SW 3.5 mph - N/A   Clear
9:57 PM 14.5 °F - 10.9 °F 86% 29.95 in 10.0 mi Calm Calm - N/A   Clear
10:16 PM 14.4 °F - 10.4 °F 84% 29.95 in 10.0 mi Calm Calm - N/A   Scattered Clouds
10:36 PM 15.1 °F - 11.7 °F 86% 29.96 in 10.0 mi Calm Calm - N/A   Scattered Clouds
10:56 PM 14.9 °F - 10.9 °F 84% 29.95 in 10.0 mi Calm Calm - N/A   Mostly Cloudy
11:16 PM 16.0 °F - 11.3 °F 82% 29.95 in 10.0 mi Calm Calm - N/A   Mostly Cloudy
11:37 PM 14.9 °F - 11.5 °F 86% 29.95 in 10.0 mi Calm Calm - N/A   Mostly Cloudy
11:56 PM 15.4 °F - 10.0 °F 79% 29.96 in 10.0 mi Calm Calm - N/A   Scattered Clouds